Regional Weather Roundup
Issued by NWS

Home | Current Version | Previous Version | Graphics & Text | Print | Product List | Glossary On
Versions: 1 2 3 4 5 6 7 8 9 10 11 12 13 14 15 16 17 18 19 20 21 22 23 24 25 26 27 28 29 30 31 32 33 34 35 36 37 38 39 40 41 42 43 44 45 46 47 48 49 50
000
ASUS43 KLOT 300708
RWRIL

ILLINOIS REGIONAL WEATHER ROUNDUP
NATIONAL WEATHER SERVICE CHICAGO/ROMEOVILLE IL
200 AM CDT TUE AUG 30 2016

NOTE: "FAIR" INDICATES FEW OR NO CLOUDS BELOW 12,000 FEET WITH NO
SIGNIFICANT WEATHER AND/OR OBSTRUCTIONS TO VISIBILITY.

* THESE STATIONS ARE NOT UNDER NWS QUALITY CONTROL. THEY ALSO MAY NOT
  REPORT WEATHER SUCH AS PRECIPITATION OR FOG.

ILZ001-002-007-009-015-016-024-300800-
NORTHWEST ILLINOIS

CITY           SKY/WX    TMP DP  RH WIND       PRES   REMARKS
MOLINE         PTCLDY    72  70  93 CALM      30.16F THUNDER
STERLING*      LGT RAIN  70  69  97 NE3       30.17F FOG
SAVANNA*       CLOUDY    70  69  96 E6        30.17F THUNDER
$$

ILZ003-004-008-010-011-017-018-300800-
NORTH CENTRAL ILLINOIS

CITY           SKY/WX    TMP DP  RH WIND       PRES   REMARKS
ROCKFORD       CLOUDY    72  69  90 CALM      30.19F THUNDER
FREEPORT*      CLOUDY    66  66  99 CALM      30.20F FOG
ROCHELLE*      PTCLDY    69  69  99 CALM      30.18F FOG
DE KALB*       CLOUDY    69  69  98 CALM      30.19F FOG
$$

ILZ005-006-012>014-019>023-300800-
NORTHEAST ILLINOIS

CITY           SKY/WX    TMP DP  RH WIND       PRES   REMARKS
CHICAGO-OHARE  MOCLDY    73  72  96 N5        30.17F FOG
CHICAGO-MIDWAY CLOUDY    77  72  84 E3        30.17S
AURORA         PTCLDY    70  68  93 CALM      30.18F FOG
LANSING*       CLEAR     72  72 100 CALM      30.18S FOG
JOLIET*        FOG       72  72  99 CALM      30.17F VSB<1/4
WAUKEGAN       CLOUDY    72  70  93 CALM      30.17F FOG
DUPAGE AIRPORT MOCLDY    71  69  93 CALM      30.17F FOG
KANKAKEE*      CLEAR     72  71  98 CALM      30.18F FOG
WHEELING       PTCLDY    72  71  97 CALM      30.19F FOG
MORRIS*        FOG       71  70  98 CALM      30.16F VSB 1
ROMEOVILLE*    CLOUDY    71  71 100 E3        30.17F FOG
$$

LMZ740>746-300800-
SOUTHERN LAKE MICHIGAN

STATION/POSITION SKY/WX   TEMP    WIND        PRES    VSBY  WAVE
                          AIR SEA DIR/SP/G                  HT/PER
                          (F)     (DEG/KT/KT) (MB)    (MI)  (FT/S)
SOUTHERN BUOY              76 76  180/  4/  4 1021.3F         0
WILMETTE HARBOR            73 73   20/  4/  4   N/A           1
HARRISON CRIB              75     340/  7/  8   N/A
BURNHAM HARBOR             73     350/  2/  4   N/A
CALUMET HARBOR             74      CALM  /  1 1021.4R
BURNS HARBOR               75     140/  3/  7 1022.4R
MICHIGAN CITY              76     130/  6/  7   N/A
MICHIGAN CITY 6N           74 75  200/  2/  2   N/A           0
ST. JOSEPH                 75 75  140/  4/  6 1021.5S         0
$$

ILZ025>027-034>036-040-047-049-050-058-095>099-300800-
WEST-CENTRAL ILLINOIS

CITY           SKY/WX    TMP DP  RH WIND       PRES   REMARKS
QUINCY         CLEAR     74  71  91 E3        30.15F
GALESBURG*     CLOUDY    73  70  92 NE3       30.15F THUNDER
MACOMB*        CLEAR     69  69  99 CALM      30.17F FOG
JACKSONVILLE*  CLEAR     73  72  96 CALM      30.15F FOG
PITTSFIELD*    CLEAR     72  71  98 CALM      30.16F
$$

ILZ028>032-037-038-041>044-048-051>054-059>061-300800-
CENTRAL ILLINOIS

CITY           SKY/WX    TMP DP  RH WIND       PRES   REMARKS
PONTIAC        PTCLDY    73  73 100 CALM      30.18F FOG
BLOOMINGTON    MOCLDY    73  71  93 NE3       30.18F
DECATUR        CLEAR     72  70  93 CALM      30.16S
PEORIA         PTCLDY    74  74 100 NE3       30.15F
LACON*         MOCLDY    69  68  97 CALM      30.15F FOG
LINCOLN*       CLEAR     73  72  99 CALM      30.16F FOG
SPRINGFIELD    CLEAR     73  71  93 CALM      30.15F
TAYLORVILLE    CLEAR     70  70  99 CALM      30.15F FOG
$$

ILZ033-039-045-046-055>057-062-063-300800-
EAST-CENTRAL ILLINOIS

CITY           SKY/WX    TMP DP  RH WIND       PRES   REMARKS
CHAMPAIGN      CLEAR     72  70  93 CALM      30.17S
RANTOUL*       PTCLDY    76  73  93 CALM      30.17F
MATTOON        CLEAR     72  69  90 CALM      30.15S
PARIS*         CLEAR     69  69 100 CALM      30.17S FOG
$$

ILZ079-100>102-300800-
SOUTHWEST ILLINOIS

CITY           SKY/WX    TMP DP  RH WIND       PRES   REMARKS
ALTON          CLEAR     72  71  98 CALM      30.15F FOG
BELLEVILLE     CLEAR     73  73 100 N2        30.13S
CAHOKIA*       CLEAR     74  71  91 CALM      30.13S
SPARTA*        CLEAR     73  71  93 CALM      30.14F
$$

ILZ064>066-069>071-074>076-080>082-084>086-088>090-092>094-300800-
SOUTH-CENTRAL ILLINOIS

CITY           SKY/WX    TMP DP  RH WIND       PRES   REMARKS
CARBONDALE     CLEAR     73  71  93 CALM      30.12F
CAIRO*         CLEAR     73  73  98 CALM      30.10S
EFFINGHAM*     CLEAR     71  71 100 CALM      30.16F FOG
MARION         CLEAR     73  72  94 CALM      30.13S
MT. VERNON     CLEAR     72  64  78 CALM      30.14F
CENTRALIA*     PTCLDY    71  71 100 CALM      30.13F FOG
SALEM*         CLEAR     72  70  93 CALM      30.14F FOG
METROPOLIS*    CLEAR     73  73  97 CALM      30.11S
$$

ILZ067-068-072-073-078-083-087-091-300800-
SOUTHEAST ILLINOIS

CITY           SKY/WX    TMP DP  RH WIND       PRES   REMARKS
LAWRENCEVILLE  CLEAR     73  73 100 CALM      30.14S
FLORA*         CLEAR     73  72  96 CALM      30.14F FOG
FAIRFIELD*       N/A     71  71  99 CALM      30.12F
HARRISBURG*    CLEAR     73  72  97 CALM      30.12S
ROBINSON*      CLEAR     68  68 100 CALM      30.15S FOG
CARMI*         CLEAR     71  71 100 N3        30.11F FOG
$$

ABBREVIATIONS USED IN REMARKS
   TC - TEMPERATURE IN CELSIUS
  WCI - WIND CHILL INDEX
   HX - HEAT INDEX
  VSB - VISIBILITY
$$





USA.gov is the U.S. government's official web portal to all federal, state and local government web resources and services.